owner,sensor,date,latitude,longitude,vertical_datum,wind_speed,wind_to_direction,wind_speed_of_gust,qcFlag 
TCOON,ioos:station:TCOON:003:1,2009-07-01T00:00:00Z,26.8015,-97.4706,0.0,6.6,136.0,7.9,'11111222,11111222,11111222' 
TCOON,ioos:station:TCOON:003:1,2009-07-01T02:00:00Z,26.8015,-97.4706,0.0,7.0,140.0,8.2,'11111222,11111222,11111222' 
TCOON,ioos:station:TCOON:003:1,2009-07-01T03:00:00Z,26.8015,-97.4706,0.0,6.6,140.0,7.9,'11111222,11111222,11111222' 
TCOON,ioos:station:TCOON:003:1,2009-07-01T04:00:00Z,26.8015,-97.4706,0.0,6.3,150.0,7.1,'11111222,11111222,11111222' 
TCOON,ioos:station:TCOON:003:1,2009-07-01T05:00:00Z,26.8015,-97.4706,0.0,6.5,151.0,7.4,'11111222,11111222,11111222' 
TCOON,ioos:station:TCOON:003:1,2009-07-01T06:00:00Z,26.8015,-97.4706,0.0,4.7,146.0,5.7,'11111222,11111222,11111222' 
TCOON,ioos:station:TCOON:003:1,2009-07-01T07:00:00Z,26.8015,-97.4706,0.0,6.3,168.0,7.3,'11111222,11111222,11111222' 
TCOON,ioos:station:TCOON:003:1,2009-07-01T08:00:00Z,26.8015,-97.4706,0.0,7.6,177.0,8.4,'11111222,11111222,11111222' 
TCOON,ioos:station:TCOON:003:1,2009-07-01T09:00:00Z,26.8015,-97.4706,0.0,3.0,236.0,3.5,'11111222,11111222,11111222' 
TCOON,ioos:station:TCOON:003:1,2009-07-01T10:00:00Z,26.8015,-97.4706,0.0,1.5,277.0,1.7,'11111222,11111222,11111222' 
TCOON,ioos:station:TCOON:003:1,2009-07-01T11:00:00Z,26.8015,-97.4706,0.0,0.9,240.0,1.3,'11111222,11111222,11111222' 
TCOON,ioos:station:TCOON:003:1,2009-07-01T12:00:00Z,26.8015,-97.4706,0.0,0.1,309.0,0.3,'11111222,11111222,11111222' 
TCOON,ioos:station:TCOON:003:1,2009-07-01T13:00:00Z,26.8015,-97.4706,0.0,0.4,170.0,0.6,'11111222,11111222,11111222' 
TCOON,ioos:station:TCOON:003:1,2009-07-01T14:00:00Z,26.8015,-97.4706,0.0,2.5,166.0,3.1,'11111222,11111222,11111222' 
TCOON,ioos:station:TCOON:003:1,2009-07-01T15:00:00Z,26.8015,-97.4706,0.0,3.4,150.0,4.0,'11111222,11111222,11111222' 
TCOON,ioos:station:TCOON:003:1,2009-07-01T16:00:00Z,26.8015,-97.4706,0.0,3.7,158.0,4.4,'11111222,11111222,11111222' 
TCOON,ioos:station:TCOON:003:1,2009-07-01T17:00:00Z,26.8015,-97.4706,0.0,3.8,157.0,4.7,'11111222,11111222,11111222' 
TCOON,ioos:station:TCOON:003:1,2009-07-01T18:00:00Z,26.8015,-97.4706,0.0,6.1,125.0,7.6,'11111222,11111222,11111222' 
TCOON,ioos:station:TCOON:003:1,2009-07-01T19:00:00Z,26.8015,-97.4706,0.0,8.2,111.0,10.0,'11111222,11111222,11111222' 
TCOON,ioos:station:TCOON:003:1,2009-07-01T20:00:00Z,26.8015,-97.4706,0.0,8.9,125.0,10.4,'11111222,11111222,11111222' 
TCOON,ioos:station:TCOON:003:1,2009-07-01T21:00:00Z,26.8015,-97.4706,0.0,7.4,121.0,9.1,'11111222,11111222,11111222' 
TCOON,ioos:station:TCOON:003:1,2009-07-01T22:00:00Z,26.8015,-97.4706,0.0,7.9,120.0,9.2,'11111222,11111222,11111222' 
TCOON,ioos:station:TCOON:003:1,2009-07-01T23:00:00Z,26.8015,-97.4706,0.0,7.8,127.0,9.3,'11111222,11111222,11111222' 
TCOON,ioos:station:TCOON:003:1,2009-07-02T00:00:00Z,26.8015,-97.4706,0.0,7.0,137.0,7.9,'11111222,11111222,11111222' 
TCOON,ioos:station:TCOON:003:1,2009-07-02T01:00:00Z,26.8015,-97.4706,0.0,7.8,131.0,8.7,'11111222,11111222,11111222' 
TCOON,ioos:station:TCOON:003:1,2009-07-02T02:00:00Z,26.8015,-97.4706,0.0,6.0,127.0,6.9,'11111222,11111222,11111222' 
TCOON,ioos:station:TCOON:003:1,2009-07-02T03:00:00Z,26.8015,-97.4706,0.0,6.3,142.0,7.5,'11111222,11111222,11111222' 
TCOON,ioos:station:TCOON:003:1,2009-07-02T04:00:00Z,26.8015,-97.4706,0.0,6.6,154.0,7.5,'11111222,11111222,11111222' 
TCOON,ioos:station:TCOON:003:1,2009-07-02T05:00:00Z,26.8015,-97.4706,0.0,5.0,148.0,5.7,'11111222,11111222,11111222' 
TCOON,ioos:station:TCOON:003:1,2009-07-02T06:00:00Z,26.8015,-97.4706,0.0,6.7,168.0,7.6,'11111222,11111222,11111222' 
TCOON,ioos:station:TCOON:003:1,2009-07-02T07:00:00Z,26.8015,-97.4706,0.0,5.7,170.0,6.4,'11111222,11111222,11111222' 
TCOON,ioos:station:TCOON:003:1,2009-07-02T08:00:00Z,26.8015,-97.4706,0.0,5.9,162.0,6.5,'11111222,11111222,11111222' 
TCOON,ioos:station:TCOON:003:1,2009-07-02T09:00:00Z,26.8015,-97.4706,0.0,5.7,171.0,6.6,'11111222,11111222,11111222' 
TCOON,ioos:station:TCOON:003:1,2009-07-02T10:00:00Z,26.8015,-97.4706,0.0,2.2,283.0,2.5,'11111222,11111222,11111222' 
TCOON,ioos:station:TCOON:003:1,2009-07-02T11:00:00Z,26.8015,-97.4706,0.0,2.4,312.0,2.6,'11111222,11111222,11111222' 
TCOON,ioos:station:TCOON:003:1,2009-07-02T12:00:00Z,26.8015,-97.4706,0.0,1.7,351.0,1.9,'11111222,11111222,11111222' 
TCOON,ioos:station:TCOON:003:1,2009-07-02T13:00:00Z,26.8015,-97.4706,0.0,0.7,348.0,0.9,'11111222,11111222,11111222' 
TCOON,ioos:station:TCOON:003:1,2009-07-02T14:00:00Z,26.8015,-97.4706,0.0,0.4,357.0,0.5,'11111222,11111222,11111222' 
TCOON,ioos:station:TCOON:003:1,2009-07-02T15:00:00Z,26.8015,-97.4706,0.0,2.3,146.0,3.4,'11111222,11111222,11111222' 
TCOON,ioos:station:TCOON:003:1,2009-07-02T16:00:00Z,26.8015,-97.4706,0.0,4.9,127.0,6.5,'11111222,11111222,11111222' 
TCOON,ioos:station:TCOON:003:1,2009-07-02T17:00:00Z,26.8015,-97.4706,0.0,5.9,122.0,6.8,'11111222,11111222,11111222' 
TCOON,ioos:station:TCOON:003:1,2009-07-02T18:00:00Z,26.8015,-97.4706,0.0,6.8,127.0,8.4,'11111222,11111222,11111222' 
TCOON,ioos:station:TCOON:003:1,2009-07-02T19:00:00Z,26.8015,-97.4706,0.0,6.6,134.0,8.4,'11111222,11111222,11111222' 
TCOON,ioos:station:TCOON:003:1,2009-07-02T20:00:00Z,26.8015,-97.4706,0.0,7.6,132.0,9.4,'11111222,11111222,11111222' 
TCOON,ioos:station:TCOON:003:1,2009-07-02T21:00:00Z,26.8015,-97.4706,0.0,6.3,132.0,7.8,'11111222,11111222,11111222' 
TCOON,ioos:station:TCOON:003:1,2009-07-02T22:00:00Z,26.8015,-97.4706,0.0,7.3,109.0,8.9,'11111222,11111222,11111222' 
TCOON,ioos:station:TCOON:003:1,2009-07-02T23:00:00Z,26.8015,-97.4706,0.0,6.5,118.0,7.8,'11111222,11111222,11111222' 
TCOON,ioos:station:TCOON:003:1,2009-07-03T00:00:00Z,26.8015,-97.4706,0.0,6.3,121.0,7.3,'11111222,11111222,11111222' 
TCOON,ioos:station:TCOON:003:1,2009-07-03T01:00:00Z,26.8015,-97.4706,0.0,6.7,114.0,7.6,'11111222,11111222,11111222' 
TCOON,ioos:station:TCOON:003:1,2009-07-03T02:00:00Z,26.8015,-97.4706,0.0,6.3,118.0,7.0,'11111222,11111222,11111222' 
TCOON,ioos:station:TCOON:003:1,2009-07-03T03:00:00Z,26.8015,-97.4706,0.0,7.1,134.0,7.8,'11111222,11111222,11111222' 
TCOON,ioos:station:TCOON:003:1,2009-07-03T04:00:00Z,26.8015,-97.4706,0.0,7.1,147.0,8.3,'11111222,11111222,11111222' 
TCOON,ioos:station:TCOON:003:1,2009-07-03T05:00:00Z,26.8015,-97.4706,0.0,6.3,145.0,7.3,'11111222,11111222,11111222' 
TCOON,ioos:station:TCOON:003:1,2009-07-03T06:00:00Z,26.8015,-97.4706,0.0,5.7,152.0,6.7,'11111222,11111222,11111222' 
TCOON,ioos:station:TCOON:003:1,2009-07-03T07:00:00Z,26.8015,-97.4706,0.0,5.3,158.0,6.3,'11111222,11111222,11111222' 
TCOON,ioos:station:TCOON:003:1,2009-07-03T08:00:00Z,26.8015,-97.4706,0.0,7.1,168.0,8.1,'11111222,11111222,11111222' 
TCOON,ioos:station:TCOON:003:1,2009-07-03T09:00:00Z,26.8015,-97.4706,0.0,6.8,176.0,7.8,'11111222,11111222,11111222' 
TCOON,ioos:station:TCOON:003:1,2009-07-03T10:00:00Z,26.8015,-97.4706,0.0,0.7,223.0,1.0,'11111222,11111222,11111222' 
TCOON,ioos:station:TCOON:003:1,2009-07-03T11:00:00Z,26.8015,-97.4706,0.0,0.6,251.0,0.9,'11111222,11111222,11111222' 
TCOON,ioos:station:TCOON:003:1,2009-07-03T12:00:00Z,26.8015,-97.4706,0.0,1.0,188.0,1.2,'11111222,11111222,11111222' 
TCOON,ioos:station:TCOON:003:1,2009-07-03T13:00:00Z,26.8015,-97.4706,0.0,4.4,179.0,5.2,'11111222,11111222,11111222' 
TCOON,ioos:station:TCOON:003:1,2009-07-03T14:00:00Z,26.8015,-97.4706,0.0,6.1,154.0,6.7,'11111222,11111222,11111222' 
TCOON,ioos:station:TCOON:003:1,2009-07-03T15:00:00Z,26.8015,-97.4706,0.0,5.9,153.0,6.7,'11111222,11111222,11111222' 
TCOON,ioos:station:TCOON:003:1,2009-07-03T16:00:00Z,26.8015,-97.4706,0.0,5.8,167.0,6.9,'11111222,11111222,11111222' 
TCOON,ioos:station:TCOON:003:1,2009-07-03T17:00:00Z,26.8015,-97.4706,0.0,8.7,137.0,9.7,'11111222,11111222,11111222' 
TCOON,ioos:station:TCOON:003:1,2009-07-03T18:00:00Z,26.8015,-97.4706,0.0,3.1,180.0,4.0,'11111222,11111222,11111222' 
TCOON,ioos:station:TCOON:003:1,2009-07-03T19:00:00Z,26.8015,-97.4706,0.0,7.1,137.0,8.4,'11111222,11111222,11111222' 
TCOON,ioos:station:TCOON:003:1,2009-07-03T20:00:00Z,26.8015,-97.4706,0.0,8.5,136.0,10.3,'11111222,11111222,11111222' 
TCOON,ioos:station:TCOON:003:1,2009-07-03T21:00:00Z,26.8015,-97.4706,0.0,8.9,142.0,10.4,'11111222,11111222,11111222' 
TCOON,ioos:station:TCOON:003:1,2009-07-03T22:00:00Z,26.8015,-97.4706,0.0,7.9,133.0,9.0,'11111222,11111222,11111222' 
TCOON,ioos:station:TCOON:003:1,2009-07-03T23:00:00Z,26.8015,-97.4706,0.0,10.7,137.0,12.5,'11111222,11111222,11111222' 
TCOON,ioos:station:TCOON:003:1,2009-07-04T00:00:00Z,26.8015,-97.4706,0.0,10.7,139.0,12.4,'11111222,11111222,11111222' 
TCOON,ioos:station:TCOON:003:1,2009-07-04T01:00:00Z,26.8015,-97.4706,0.0,9.2,140.0,11.1,'11111222,11111222,11111222' 
TCOON,ioos:station:TCOON:003:1,2009-07-04T02:00:00Z,26.8015,-97.4706,0.0,8.5,148.0,10.0,'11111222,11111222,11111222' 
TCOON,ioos:station:TCOON:003:1,2009-07-04T03:00:00Z,26.8015,-97.4706,0.0,7.6,148.0,9.0,'11111222,11111222,11111222' 
TCOON,ioos:station:TCOON:003:1,2009-07-04T04:00:00Z,26.8015,-97.4706,0.0,9.4,156.0,10.8,'11111222,11111222,11111222' 
TCOON,ioos:station:TCOON:003:1,2009-07-04T05:00:00Z,26.8015,-97.4706,0.0,9.6,163.0,11.7,'11111222,11111222,11111222' 
TCOON,ioos:station:TCOON:003:1,2009-07-04T06:00:00Z,26.8015,-97.4706,0.0,10.1,164.0,11.8,'11111222,11111222,11111222' 
TCOON,ioos:station:TCOON:003:1,2009-07-04T07:00:00Z,26.8015,-97.4706,0.0,8.7,171.0,9.5,'11111222,11111222,11111222' 
TCOON,ioos:station:TCOON:003:1,2009-07-04T08:00:00Z,26.8015,-97.4706,0.0,10.1,172.0,11.7,'11111222,11111222,11111222' 
TCOON,ioos:station:TCOON:003:1,2009-07-04T09:00:00Z,26.8015,-97.4706,0.0,8.3,194.0,9.6,'11111222,11111222,11111222' 
TCOON,ioos:station:TCOON:003:1,2009-07-04T10:00:00Z,26.8015,-97.4706,0.0,8.5,190.0,10.6,'11111222,11111222,11111222' 
TCOON,ioos:station:TCOON:003:1,2009-07-04T11:00:00Z,26.8015,-97.4706,0.0,6.1,196.0,7.6,'11111222,11111222,11111222' 
TCOON,ioos:station:TCOON:003:1,2009-07-04T12:00:00Z,26.8015,-97.4706,0.0,5.9,190.0,7.8,'11111222,11111222,11111222' 
TCOON,ioos:station:TCOON:003:1,2009-07-04T13:00:00Z,26.8015,-97.4706,0.0,10.3,195.0,12.1,'11111222,11111222,11111222' 
TCOON,ioos:station:TCOON:003:1,2009-07-04T14:00:00Z,26.8015,-97.4706,0.0,7.6,196.0,9.4,'11111222,11111222,11111222' 
TCOON,ioos:station:TCOON:003:1,2009-07-04T15:00:00Z,26.8015,-97.4706,0.0,7.0,195.0,8.4,'11111222,11111222,11111222' 
TCOON,ioos:station:TCOON:003:1,2009-07-04T16:00:00Z,26.8015,-97.4706,0.0,5.4,179.0,6.9,'11111222,11111222,11111222' 
TCOON,ioos:station:TCOON:003:1,2009-07-04T17:00:00Z,26.8015,-97.4706,0.0,6.9,155.0,9.3,'11111222,11111222,11111222' 
TCOON,ioos:station:TCOON:003:1,2009-07-04T18:00:00Z,26.8015,-97.4706,0.0,5.7,157.0,6.5,'11111222,11111222,11111222' 
TCOON,ioos:station:TCOON:003:1,2009-07-04T19:00:00Z,26.8015,-97.4706,0.0,9.1,133.0,11.2,'11111222,11111222,11111222' 
TCOON,ioos:station:TCOON:003:1,2009-07-04T20:00:00Z,26.8015,-97.4706,0.0,12.2,151.0,14.7,'11111222,11111222,11111222' 
TCOON,ioos:station:TCOON:003:1,2009-07-04T21:00:00Z,26.8015,-97.4706,0.0,11.8,147.0,14.1,'11111222,11111222,11111222' 
TCOON,ioos:station:TCOON:003:1,2009-07-04T22:00:00Z,26.8015,-97.4706,0.0,13.2,154.0,15.5,'11111222,11111222,11111222' 
TCOON,ioos:station:TCOON:003:1,2009-07-04T23:00:00Z,26.8015,-97.4706,0.0,13.4,158.0,15.6,'11111222,11111222,11111222' 
TCOON,ioos:station:TCOON:003:1,2009-07-05T00:00:00Z,26.8015,-97.4706,0.0,12.9,162.0,15.0,'11111222,11111222,11111222' 
TCOON,ioos:station:TCOON:003:1,2009-07-05T01:00:00Z,26.8015,-97.4706,0.0,12.3,160.0,14.2,'11111222,11111222,11111222' 
TCOON,ioos:station:TCOON:003:1,2009-07-05T02:00:00Z,26.8015,-97.4706,0.0,11.4,166.0,13.1,'11111222,11111222,11111222' 
TCOON,ioos:station:TCOON:003:1,2009-07-05T03:00:00Z,26.8015,-97.4706,0.0,10.4,162.0,11.8,'11111222,11111222,11111222' 
TCOON,ioos:station:TCOON:003:1,2009-07-05T04:00:00Z,26.8015,-97.4706,0.0,10.4,164.0,12.1,'11111222,11111222,11111222' 
TCOON,ioos:station:TCOON:003:1,2009-07-05T05:00:00Z,26.8015,-97.4706,0.0,10.9,176.0,12.5,'11111222,11111222,11111222' 
TCOON,ioos:station:TCOON:003:1,2009-07-05T06:00:00Z,26.8015,-97.4706,0.0,10.5,191.0,11.7,'11111222,11111222,11111222' 
TCOON,ioos:station:TCOON:003:1,2009-07-05T07:00:00Z,26.8015,-97.4706,0.0,10.3,187.0,11.8,'11111222,11111222,11111222' 
TCOON,ioos:station:TCOON:003:1,2009-07-05T08:00:00Z,26.8015,-97.4706,0.0,9.8,189.0,11.4,'11111222,11111222,11111222' 
TCOON,ioos:station:TCOON:003:1,2009-07-05T09:00:00Z,26.8015,-97.4706,0.0,7.9,192.0,9.1,'11111222,11111222,11111222' 
TCOON,ioos:station:TCOON:003:1,2009-07-05T10:00:00Z,26.8015,-97.4706,0.0,8.6,190.0,9.7,'11111222,11111222,11111222' 
TCOON,ioos:station:TCOON:003:1,2009-07-05T11:00:00Z,26.8015,-97.4706,0.0,8.8,195.0,10.1,'11111222,11111222,11111222' 
TCOON,ioos:station:TCOON:003:1,2009-07-05T12:00:00Z,26.8015,-97.4706,0.0,8.2,191.0,9.3,'11111222,11111222,11111222' 
TCOON,ioos:station:TCOON:003:1,2009-07-05T13:00:00Z,26.8015,-97.4706,0.0,9.4,183.0,10.6,'11111222,11111222,11111222' 
TCOON,ioos:station:TCOON:003:1,2009-07-05T14:00:00Z,26.8015,-97.4706,0.0,8.9,179.0,11.2,'11111222,11111222,11111222' 
TCOON,ioos:station:TCOON:003:1,2009-07-05T15:00:00Z,26.8015,-97.4706,0.0,9.8,165.0,11.6,'11111222,11111222,11111222' 
TCOON,ioos:station:TCOON:003:1,2009-07-05T16:00:00Z,26.8015,-97.4706,0.0,9.5,162.0,11.1,'11111222,11111222,11111222' 
TCOON,ioos:station:TCOON:003:1,2009-07-05T17:00:00Z,26.8015,-97.4706,0.0,10.7,161.0,12.6,'11111222,11111222,11111222' 
TCOON,ioos:station:TCOON:003:1,2009-07-05T18:00:00Z,26.8015,-97.4706,0.0,11.1,167.0,12.6,'11111222,11111222,11111222' 
TCOON,ioos:station:TCOON:003:1,2009-07-05T19:00:00Z,26.8015,-97.4706,0.0,12.0,165.0,14.3,'11111222,11111222,11111222' 
TCOON,ioos:station:TCOON:003:1,2009-07-05T20:00:00Z,26.8015,-97.4706,0.0,11.3,161.0,13.1,'11111222,11111222,11111222' 
TCOON,ioos:station:TCOON:003:1,2009-07-05T21:00:00Z,26.8015,-97.4706,0.0,12.1,158.0,13.9,'11111222,11111222,11111222' 
TCOON,ioos:station:TCOON:003:1,2009-07-05T22:00:00Z,26.8015,-97.4706,0.0,13.0,159.0,15.6,'11111222,11111222,11111222' 
TCOON,ioos:station:TCOON:003:1,2009-07-05T23:00:00Z,26.8015,-97.4706,0.0,14.4,159.0,16.5,'11111222,11111222,11111222' 
TCOON,ioos:station:TCOON:003:1,2009-07-06T00:00:00Z,26.8015,-97.4706,0.0,11.9,169.0,14.6,'11111222,11111222,11111222' 
TCOON,ioos:station:TCOON:003:1,2009-07-06T01:00:00Z,26.8015,-97.4706,0.0,12.1,172.0,13.7,'11111222,11111222,11111222' 
TCOON,ioos:station:TCOON:003:1,2009-07-06T02:00:00Z,26.8015,-97.4706,0.0,10.5,170.0,12.7,'11111222,11111222,11111222' 
TCOON,ioos:station:TCOON:003:1,2009-07-06T03:00:00Z,26.8015,-97.4706,0.0,10.8,164.0,12.6,'11111222,11111222,11111222' 
TCOON,ioos:station:TCOON:003:1,2009-07-06T04:00:00Z,26.8015,-97.4706,0.0,10.0,164.0,11.5,'11111222,11111222,11111222' 
TCOON,ioos:station:TCOON:003:1,2009-07-06T05:00:00Z,26.8015,-97.4706,0.0,10.4,164.0,12.8,'11111222,11111222,11111222' 
TCOON,ioos:station:TCOON:003:1,2009-07-06T06:00:00Z,26.8015,-97.4706,0.0,9.1,162.0,10.2,'11111222,11111222,11111222' 
TCOON,ioos:station:TCOON:003:1,2009-07-06T07:00:00Z,26.8015,-97.4706,0.0,10.6,177.0,12.1,'11111222,11111222,11111222' 
TCOON,ioos:station:TCOON:003:1,2009-07-06T08:00:00Z,26.8015,-97.4706,0.0,10.4,183.0,11.8,'11111222,11111222,11111222' 
TCOON,ioos:station:TCOON:003:1,2009-07-06T09:00:00Z,26.8015,-97.4706,0.0,9.9,186.0,11.5,'11111222,11111222,11111222' 
TCOON,ioos:station:TCOON:003:1,2009-07-06T10:00:00Z,26.8015,-97.4706,0.0,9.6,183.0,11.3,'11111222,11111222,11111222' 
TCOON,ioos:station:TCOON:003:1,2009-07-06T11:00:00Z,26.8015,-97.4706,0.0,7.1,188.0,8.9,'11111222,11111222,11111222' 
TCOON,ioos:station:TCOON:003:1,2009-07-06T12:00:00Z,26.8015,-97.4706,0.0,8.7,182.0,10.1,'11111222,11111222,11111222' 
TCOON,ioos:station:TCOON:003:1,2009-07-06T13:00:00Z,26.8015,-97.4706,0.0,7.8,180.0,9.1,'11111222,11111222,11111222' 
TCOON,ioos:station:TCOON:003:1,2009-07-06T14:00:00Z,26.8015,-97.4706,0.0,6.9,158.0,7.7,'11111222,11111222,11111222' 
TCOON,ioos:station:TCOON:003:1,2009-07-06T15:00:00Z,26.8015,-97.4706,0.0,8.1,154.0,9.8,'11111222,11111222,11111222' 
TCOON,ioos:station:TCOON:003:1,2009-07-06T16:00:00Z,26.8015,-97.4706,0.0,8.3,157.0,9.3,'11111222,11111222,11111222' 
TCOON,ioos:station:TCOON:003:1,2009-07-06T17:00:00Z,26.8015,-97.4706,0.0,8.9,166.0,10.2,'11111222,11111222,11111222' 
TCOON,ioos:station:TCOON:003:1,2009-07-06T18:00:00Z,26.8015,-97.4706,0.0,10.9,167.0,12.3,'11111222,11111222,11111222' 
TCOON,ioos:station:TCOON:003:1,2009-07-06T19:00:00Z,26.8015,-97.4706,0.0,11.3,167.0,12.8,'11111222,11111222,11111222' 
TCOON,ioos:station:TCOON:003:1,2009-07-06T20:00:00Z,26.8015,-97.4706,0.0,12.3,152.0,13.8,'11111222,11111222,11111222' 
TCOON,ioos:station:TCOON:003:1,2009-07-06T21:00:00Z,26.8015,-97.4706,0.0,12.8,150.0,15.9,'11111222,11111222,11111222' 
TCOON,ioos:station:TCOON:003:1,2009-07-06T22:00:00Z,26.8015,-97.4706,0.0,12.4,146.0,15.0,'11111222,11111222,11111222' 
TCOON,ioos:station:TCOON:003:1,2009-07-06T23:00:00Z,26.8015,-97.4706,0.0,11.7,148.0,14.0,'11111222,11111222,11111222' 
TCOON,ioos:station:TCOON:003:1,2009-07-07T00:00:00Z,26.8015,-97.4706,0.0,11.6,150.0,13.5,'11111222,11111222,11111222' 
TCOON,ioos:station:TCOON:003:1,2009-07-07T01:00:00Z,26.8015,-97.4706,0.0,10.5,156.0,12.1,'11111222,11111222,11111222' 
TCOON,ioos:station:TCOON:003:1,2009-07-07T02:00:00Z,26.8015,-97.4706,0.0,11.7,172.0,12.7,'11111222,11111222,11111222' 
TCOON,ioos:station:TCOON:003:1,2009-07-07T03:00:00Z,26.8015,-97.4706,0.0,12.6,174.0,14.7,'11111222,11111222,11111222' 
TCOON,ioos:station:TCOON:003:1,2009-07-07T04:00:00Z,26.8015,-97.4706,0.0,13.0,181.0,15.5,'11111222,11111222,11111222' 
TCOON,ioos:station:TCOON:003:1,2009-07-07T05:00:00Z,26.8015,-97.4706,0.0,9.8,193.0,12.0,'11111222,11111222,11111222' 
TCOON,ioos:station:TCOON:003:1,2009-07-07T06:00:00Z,26.8015,-97.4706,0.0,8.3,191.0,9.7,'11111222,11111222,11111222' 
TCOON,ioos:station:TCOON:003:1,2009-07-07T07:00:00Z,26.8015,-97.4706,0.0,7.5,190.0,8.4,'11111222,11111222,11111222' 
TCOON,ioos:station:TCOON:003:1,2009-07-07T08:00:00Z,26.8015,-97.4706,0.0,8.1,187.0,9.8,'11111222,11111222,11111222' 
TCOON,ioos:station:TCOON:003:1,2009-07-07T09:00:00Z,26.8015,-97.4706,0.0,9.4,182.0,10.6,'11111222,11111222,11111222' 
TCOON,ioos:station:TCOON:003:1,2009-07-07T10:00:00Z,26.8015,-97.4706,0.0,8.8,186.0,10.4,'11111222,11111222,11111222' 
TCOON,ioos:station:TCOON:003:1,2009-07-07T11:00:00Z,26.8015,-97.4706,0.0,8.5,187.0,10.1,'11111222,11111222,11111222' 
TCOON,ioos:station:TCOON:003:1,2009-07-07T12:00:00Z,26.8015,-97.4706,0.0,8.1,193.0,9.1,'11111222,11111222,11111222' 
TCOON,ioos:station:TCOON:003:1,2009-07-07T13:00:00Z,26.8015,-97.4706,0.0,8.7,190.0,9.5,'11111222,11111222,11111222' 
TCOON,ioos:station:TCOON:003:1,2009-07-07T14:00:00Z,26.8015,-97.4706,0.0,10.0,204.0,11.6,'11111222,11111222,11111222' 
TCOON,ioos:station:TCOON:003:1,2009-07-07T15:00:00Z,26.8015,-97.4706,0.0,7.8,162.0,9.0,'11111222,11111222,11111222' 
TCOON,ioos:station:TCOON:003:1,2009-07-07T16:00:00Z,26.8015,-97.4706,0.0,6.8,154.0,8.6,'11111222,11111222,11111222' 
TCOON,ioos:station:TCOON:003:1,2009-07-07T18:00:00Z,26.8015,-97.4706,0.0,8.6,162.0,10.0,'11111222,11111222,11111222' 
TCOON,ioos:station:TCOON:003:1,2009-07-07T19:00:00Z,26.8015,-97.4706,0.0,11.5,151.0,13.8,'11111222,11111222,11111222' 
TCOON,ioos:station:TCOON:003:1,2009-07-07T20:00:00Z,26.8015,-97.4706,0.0,12.5,153.0,14.6,'11111222,11111222,11111222' 
TCOON,ioos:station:TCOON:003:1,2009-07-07T21:00:00Z,26.8015,-97.4706,0.0,12.9,150.0,14.9,'11111222,11111222,11111222' 
TCOON,ioos:station:TCOON:003:1,2009-07-07T22:00:00Z,26.8015,-97.4706,0.0,12.3,156.0,14.2,'11111222,11111222,11111222' 
TCOON,ioos:station:TCOON:003:1,2009-07-07T23:00:00Z,26.8015,-97.4706,0.0,12.6,155.0,14.0,'11111222,11111222,11111222' 
TCOON,ioos:station:TCOON:003:1,2009-07-08T00:00:00Z,26.8015,-97.4706,0.0,12.1,162.0,13.6,'11111222,11111222,11111222' 
TCOON,ioos:station:TCOON:003:1,2009-07-08T01:00:00Z,26.8015,-97.4706,0.0,12.1,173.0,14.0,'11111222,11111222,11111222' 
TCOON,ioos:station:TCOON:003:1,2009-07-08T02:00:00Z,26.8015,-97.4706,0.0,11.5,171.0,13.6,'11111222,11111222,11111222' 
TCOON,ioos:station:TCOON:003:1,2009-07-08T03:00:00Z,26.8015,-97.4706,0.0,10.6,185.0,12.2,'11111222,11111222,11111222' 
TCOON,ioos:station:TCOON:003:1,2009-07-08T04:00:00Z,26.8015,-97.4706,0.0,7.4,203.0,8.4,'11111222,11111222,11111222' 
TCOON,ioos:station:TCOON:003:1,2009-07-08T05:00:00Z,26.8015,-97.4706,0.0,8.3,196.0,9.5,'11111222,11111222,11111222' 
TCOON,ioos:station:TCOON:003:1,2009-07-08T06:00:00Z,26.8015,-97.4706,0.0,7.8,193.0,9.2,'11111222,11111222,11111222' 
TCOON,ioos:station:TCOON:003:1,2009-07-08T07:00:00Z,26.8015,-97.4706,0.0,5.0,180.0,6.0,'11111222,11111222,11111222' 
TCOON,ioos:station:TCOON:003:1,2009-07-08T08:00:00Z,26.8015,-97.4706,0.0,7.9,185.0,8.9,'11111222,11111222,11111222' 
TCOON,ioos:station:TCOON:003:1,2009-07-08T09:00:00Z,26.8015,-97.4706,0.0,5.9,191.0,6.8,'11111222,11111222,11111222' 
TCOON,ioos:station:TCOON:003:1,2009-07-08T10:00:00Z,26.8015,-97.4706,0.0,6.6,187.0,7.7,'11111222,11111222,11111222' 
TCOON,ioos:station:TCOON:003:1,2009-07-08T11:00:00Z,26.8015,-97.4706,0.0,7.9,183.0,8.7,'11111222,11111222,11111222' 
TCOON,ioos:station:TCOON:003:1,2009-07-08T12:00:00Z,26.8015,-97.4706,0.0,8.5,179.0,9.4,'11111222,11111222,11111222' 
TCOON,ioos:station:TCOON:003:1,2009-07-08T13:00:00Z,26.8015,-97.4706,0.0,7.7,172.0,8.9,'11111222,11111222,11111222' 
TCOON,ioos:station:TCOON:003:1,2009-07-08T14:00:00Z,26.8015,-97.4706,0.0,6.7,157.0,7.6,'11111222,11111222,11111222' 
TCOON,ioos:station:TCOON:003:1,2009-07-08T15:00:00Z,26.8015,-97.4706,0.0,8.3,159.0,9.7,'11111222,11111222,11111222' 
TCOON,ioos:station:TCOON:003:1,2009-07-08T16:00:00Z,26.8015,-97.4706,0.0,7.6,159.0,8.9,'11111222,11111222,11111222' 
TCOON,ioos:station:TCOON:003:1,2009-07-08T17:00:00Z,26.8015,-97.4706,0.0,8.7,163.0,9.7,'11111222,11111222,11111222' 
TCOON,ioos:station:TCOON:003:1,2009-07-08T18:00:00Z,26.8015,-97.4706,0.0,11.1,143.0,13.3,'11111222,11111222,11111222' 
TCOON,ioos:station:TCOON:003:1,2009-07-08T19:00:00Z,26.8015,-97.4706,0.0,11.7,152.0,14.5,'11111222,11111222,11111222' 
TCOON,ioos:station:TCOON:003:1,2009-07-08T20:00:00Z,26.8015,-97.4706,0.0,13.7,153.0,16.4,'11111222,11111222,11111222' 
TCOON,ioos:station:TCOON:003:1,2009-07-08T21:00:00Z,26.8015,-97.4706,0.0,11.3,155.0,13.6,'11111222,11111222,11111222' 
TCOON,ioos:station:TCOON:003:1,2009-07-08T22:00:00Z,26.8015,-97.4706,0.0,10.8,152.0,12.5,'11111222,11111222,11111222' 
TCOON,ioos:station:TCOON:003:1,2009-07-08T23:00:00Z,26.8015,-97.4706,0.0,12.0,162.0,13.5,'11111222,11111222,11111222' 
TCOON,ioos:station:TCOON:003:1,2009-07-09T00:00:00Z,26.8015,-97.4706,0.0,11.2,160.0,12.5,'11111222,11111222,11111222' 
TCOON,ioos:station:TCOON:003:1,2009-07-09T01:00:00Z,26.8015,-97.4706,0.0,10.1,156.0,11.6,'11111222,11111222,11111222' 
TCOON,ioos:station:TCOON:003:1,2009-07-09T02:00:00Z,26.8015,-97.4706,0.0,9.4,157.0,11.7,'11111222,11111222,11111222' 
TCOON,ioos:station:TCOON:003:1,2009-07-09T03:00:00Z,26.8015,-97.4706,0.0,8.8,157.0,10.7,'11111222,11111222,11111222' 
TCOON,ioos:station:TCOON:003:1,2009-07-09T04:00:00Z,26.8015,-97.4706,0.0,9.0,166.0,10.6,'11111222,11111222,11111222' 
TCOON,ioos:station:TCOON:003:1,2009-07-09T05:00:00Z,26.8015,-97.4706,0.0,10.7,179.0,12.5,'11111222,11111222,11111222' 
TCOON,ioos:station:TCOON:003:1,2009-07-09T06:00:00Z,26.8015,-97.4706,0.0,10.7,183.0,12.5,'11111222,11111222,11111222' 
TCOON,ioos:station:TCOON:003:1,2009-07-09T07:00:00Z,26.8015,-97.4706,0.0,8.1,194.0,9.4,'11111222,11111222,11111222' 
TCOON,ioos:station:TCOON:003:1,2009-07-09T08:00:00Z,26.8015,-97.4706,0.0,7.3,191.0,9.1,'11111222,11111222,11111222' 
TCOON,ioos:station:TCOON:003:1,2009-07-09T09:00:00Z,26.8015,-97.4706,0.0,6.7,192.0,8.3,'11111222,11111222,11111222' 
TCOON,ioos:station:TCOON:003:1,2009-07-09T10:00:00Z,26.8015,-97.4706,0.0,3.8,205.0,4.5,'11111222,11111222,11111222' 
TCOON,ioos:station:TCOON:003:1,2009-07-09T11:00:00Z,26.8015,-97.4706,0.0,5.3,194.0,6.4,'11111222,11111222,11111222' 